Location: Amsterdam
(30.7274°N, 84.4357°W)
Time: 19:27:40
(UTC+00:00)

Altair - Pass Details

Date: 14 August 2024
Orbit: 1501 x 1682 km, 47.2° (Epoch: 07 September)

Event Time Altitude Azimuth Distance (km) Brightness Sun altitude
Rises 23:06:45 0° 309° (NW) 4,756 11.1 14.6°
Reaches altitude 10° 23:09:52 10° 310° (NW) 3,747 10.7 13.9°
Maximum altitude 23:19:20 83° 39° (NE) 1,533 7.7 11.9°
Drops below altitude 10° 23:28:32 10° 127° (SE) 3,645 9.0 10.0°
Sets 23:31:31 0° 128° (SE) 4,622 9.5 9.3°
